Temperature
29 29 29 30 31 32 32 32 32 32 34 33 32 32 32 32 31 29 28 26 25 23 22 22 21 20 19 19 19 18 18 18 18 18 18 18 18 18 18 18 18 18 17 18
29 29 30 32 32 32 32 31 31 32 33 33 32 32 32 31 30 29 28 26 25 24 22 21 20 19 19 19 18 18 18 18 18 18 18 18 18 18 18 18 18 18 17 17
29 31 32 32 32 31 31 31 31 32 32 33 32 30 30 29 29 29 28 27 26 24 22 21 20 19 19 18 18 18 18 18 18 18 18 18 18 17 17 17 18 17 17 17
30 32 32 32 31 31 31 32 32 32 31 31 31 29 28 29 28 29 28 27 26 24 23 21 20 19 19 18 18 18 18 18 18 17 18 18 18 17 18 18 17 17 17 16
31 32 32 31 32 32 31 33 32 32 31 30 30 28 28 29 28 29 29 28 26 25 23 22 20 20 19 18 18 18 18 17 17 17 18 18 17 17 17 17 17 17 17 16
32 33 33 32 33 33 32 32 31 31 30 27 27 27 27 29 29 30 29 28 26 25 23 22 20 19 19 18 18 17 17 17 17 17 17 17 17 17 17 17 17 17 17 16
30 31 33 33 31 32 32 30 29 28 27 26 25 25 27 30 31 31 30 28 26 25 23 22 20 19 18 18 18 17 17 17 17 17 17 17 17 17 17 17 17 17 17 17
29 30 32 32 32 31 31 30 28 27 27 25 23 23 27 31 31 30 29 28 26 25 24 22 20 19 19 18 18 17 17 17 17 17 17 17 17 17 17 17 17 17 17 17
30 31 33 33 33 32 30 31 32 30 29 26 25 25 26 29 30 30 29 28 27 25 24 22 20 19 19 18 18 17 17 17 17 17 17 17 17 17 17 17 17 17 17 17
31 30 32 33 33 32 32 32 31 30 28 27 27 25 24 26 27 29 29 28 26 25 24 22 21 19 19 18 18 17 17 17 17 16 16 16 17 17 16 17 17 17 17 17
31 30 31 32 31 31 31 31 30 30 30 28 27 25 25 24 26 28 29 28 26 25 24 22 21 20 19 18 17 17 17 17 16 16 16 16 16 16 16 17 17 17 17 16
31 30 30 31 32 33 32 31 30 28 28 29 28 27 27 26 27 28 29 28 27 25 24 22 21 20 19 18 18 17 17 17 17 16 16 16 16 16 16 17 17 16 16 16
30 29 28 29 30 31 31 31 30 29 29 29 28 27 28 27 27 28 29 28 26 25 24 22 21 20 19 19 18 17 17 17 16 16 16 16 16 16 16 16 16 16 16 16
28 28 28 28 28 28 28 29 29 28 28 28 29 28 27 27 26 26 27 27 26 24 23 22 21 20 19 19 18 18 17 17 17 16 16 16 16 16 16 16 16 16 16 16
29 28 28 29 30 29 28 27 27 27 27 28 29 29 27 26 25 25 25 26 25 24 23 22 21 20 19 19 18 18 18 17 17 17 17 17 16 16 16 16 16 16 16 16
28 27 27 27 29 29 27 27 26 26 27 28 29 29 28 26 25 24 25 25 25 24 23 22 21 20 19 19 18 18 18 17 17 17 17 17 17 16 16 16 16 16 16 16
26 26 25 26 28 27 26 27 27 27 28 29 28 29 28 26 25 25 25 24 24 23 23 22 21 20 19 19 18 18 18 17 17 17 17 16 16 16 16 16 16 16 16 15
25 24 25 25 26 24 27 29 29 28 28 29 29 28 27 26 24 24 24 23 23 23 22 21 20 20 19 18 18 18 18 17 17 17 16 16 16 16 16 15 15 15 15 15
26 24 24 24 25 25 27 27 27 26 27 28 27 26 25 24 24 23 22 22 21 21 21 20 20 19 18 18 18 18 17 17 17 16 16 16 15 15 15 15 15 14 14 14
26 25 24 24 23 23 25 27 26 26 25 25 25 25 24 24 24 21 19 19 19 19 19 19 19 18 18 17 17 17 17 16 16 15 15 15 15 15 15 14 14 14 13 13
23 23 23 23 23 24 24 26 26 24 22 23 23 23 22 21 20 18 17 17 17 17 17 17 17 17 17 17 17 16 16 15 15 15 15 14 14 14 14 13 13 13 13 12
22 22 22 22 22 22 23 23 22 21 22 22 21 20 19 18 18 16 16 15 15 15 15 16 16 16 16 16 16 15 15 14 14 14 14 13 13 13 13 12 12 12 12 12
22 22 22 22 21 21 21 21 21 21 20 20 20 19 18 17 16 15 15 14 14 14 14 14 14 14 14 14 14 14 13 13 13 13 13 12 12 12 12 12 11 11 11 11
21 21 21 21 21 21 20 20 19 19 19 18 18 18 17 16 15 14 14 13 13 13 13 13 13 13 13 13 13 13 13 13 13 12 12 11 11 11 11 11 11 11 10 10
20 20 20 20 20 20 19 18 18 17 17 17 16 16 15 15 14 13 13 12 12 12 12 12 12 12 12 12 12 12 12 12 12 11 11 11 11 10 10 10 10 10 10 10
20 19 19 18 18 17 17 16 16 15 15 15 15 14 14 14 13 12 12 11 11 11 11 11 11 11 11 11 11 11 11 11 11 11 10 10 10 10 10 10 10 9 9 9
Wind_Speed
16 15 16 17 18 18 17 17 15 11 8 9 10 10 6 5 4 4 7 8 10 10 11 10 11 11 11 10 11 12 12 11 9 8 8 6 6 5 4 5 8 6 5 6
17 20 20 19 19 17 16 15 16 13 11 11 12 13 4 1 2 4 7 9 11 11 11 11 10 11 11 11 11 12 12 12 11 8 7 6 6 4 4 4 6 7 6 7
21 19 19 18 17 17 17 15 16 15 14 13 12 10 3 2 3 6 7 8 10 12 13 13 12 11 10 11 12 12 12 12 11 9 7 6 5 4 4 5 5 5 6 6
20 21 19 15 15 16 16 15 15 16 14 13 11 9 4 5 7 7 8 8 9 10 11 12 12 12 11 11 12 11 11 11 11 10 10 11 8 7 7 6 6 5 5 5
19 19 19 18 17 16 16 16 15 15 14 15 11 10 3 5 6 8 9 8 9 10 11 11 11 10 10 10 11 11 11 11 11 10 11 10 8 7 6 6 8 7 5 4
20 18 16 15 15 14 14 15 15 14 12 12 11 10 6 5 5 6 9 10 9 9 10 10 9 9 9 9 10 11 12 11 10 10 10 10 10 9 8 9 9 7 5 5
21 21 18 14 14 14 14 12 11 12 9 7 8 7 7 6 6 6 9 11 10 10 10 10 10 10 10 10 10 10 11 11 11 10 10 10 10 9 10 9 9 8 7 6
17 16 20 18 16 15 14 15 13 13 8 3 1 7 7 3 7 8 10 11 11 11 10 10 10 10 10 10 10 11 11 10 10 9 9 9 8 7 7 8 7 6 5 6
14 12 11 14 16 17 17 16 17 16 15 10 6 5 5 1 6 8 9 11 11 11 11 11 11 10 9 9 10 10 10 10 9 8 7 8 8 7 7 8 7 5 4 7
19 14 9 8 9 14 16 15 10 11 12 12 6 3 2 3 3 6 10 10 11 10 11 12 11 11 10 9 10 10 10 9 9 9 8 8 7 8 7 7 6 5 5 5
17 16 14 10 11 13 13 15 13 10 10 11 9 1 3 6 7 5 10 13 13 12 12 12 12 11 11 11 11 10 10 9 9 8 7 8 8 7 7 6 6 5 5 5
12 13 14 14 12 13 13 13 12 11 11 11 10 2 5 7 7 7 8 13 14 13 12 13 13 12 12 12 11 11 11 10 9 9 8 8 8 8 8 7 6 6 6 5
6 8 12 14 14 12 10 10 11 11 11 12 12 2 3 2 3 1 6 12 14 14 13 13 13 12 12 12 12 12 12 11 11 10 9 8 8 8 7 7 6 6 6 6
5 9 13 15 7 5 7 11 11 10 11 13 13 4 3 2 4 3 1 8 12 13 12 12 12 11 11 11 11 12 12 11 11 11 11 10 9 8 8 7 7 6 6 5
8 13 15 18 16 10 8 10 12 13 15 16 13 9 2 2 1 3 4 7 10 11 13 12 12 11 11 10 10 10 10 10 11 11 11 10 9 8 8 7 6 6 5 5
9 11 14 16 16 13 10 9 10 14 16 18 15 11 5 2 3 4 6 9 10 11 12 13 12 12 12 11 11 10 9 9 9 9 9 9 8 8 7 7 6 6 5 5
6 7 12 15 16 14 13 12 13 15 17 15 13 6 2 3 4 5 6 8 8 10 11 12 12 11 10 10 11 10 10 9 9 8 8 8 8 8 7 7 7 7 7 7
7 8 8 13 15 18 11 9 10 11 11 10 7 7 6 6 7 8 7 6 5 5 7 9 10 10 10 10 10 9 10 9 9 8 8 8 8 8 7 7 8 8 8 8
10 8 9 11 15 15 13 9 8 9 10 8 6 6 6 6 3 7 9 8 8 7 6 6 8 10 9 9 10 10 9 9 9 8 7 7 8 8 9 9 9 8 8 9
10 7 9 11 13 13 8 6 7 7 6 10 9 7 4 4 3 4 10 12 12 11 9 8 8 9 9 8 10 11 10 9 9 8 8 8 9 10 10 10 9 9 9 10
9 9 12 14 14 11 6 7 5 7 3 9 9 8 7 6 6 7 10 12 11 11 10 10 9 9 8 9 11 11 11 10 10 10 11 11 11 11 11 10 10 10 10 11
7 6 9 10 12 6 11 8 6 6 7 7 7 7 8 8 8 9 10 10 11 11 11 11 10 10 9 10 12 13 12 11 12 12 13 12 11 11 11 10 10 10 10 10
4 4 3 3 3 5 7 6 7 7 7 6 5 5 5 6 7 9 10 10 11 11 11 11 12 13 11 11 12 14 12 12 14 14 14 13 13 11 10 10 9 7 6 6
3 4 5 5 3 4 6 7 8 7 6 5 4 3 4 6 8 10 11 11 11 11 11 12 14 15 13 13 14 13 12 13 15 15 13 12 12 11 11 9 8 7 5 4
3 3 5 6 5 6 6 8 8 7 6 5 4 4 5 7 10 11 12 12 12 12 12 12 14 14 14 14 14 12 12 13 14 14 13 12 11 12 12 12 10 10 9 9
2 2 3 3 4 4 5 6 6 5 5 4 5 6 7 9 13 14 13 13 13 13 13 14 15 15 14 14 13 12 11 11 12 11 10 9 9 9 10 11 12 17 13 15
Wind_Direction
224 234 242 247 249 257 275 289 295 293 285 282 288 290 260 211 203 178 165 164 167 170 169 162 162 165 162 166 171 170 171 171 169 172 170 166 161 161 156 143 137 160 169 154
234 234 243 255 267 273 276 282 285 287 282 281 291 292 286 278 182 173 177 177 176 173 168 162 164 169 170 171 175 172 172 172 175 175 169 165 153 164 161 138 144 164 164 167
232 244 241 243 258 267 268 270 275 283 288 287 286 285 262 196 217 182 184 177 174 172 170 167 171 176 177 176 179 178 173 174 175 170 163 159 153 169 157 148 158 165 168 179
239 247 256 251 255 262 266 265 270 277 282 283 291 287 218 207 204 198 177 168 167 166 167 169 174 179 181 181 179 174 172 172 172 170 168 169 172 177 175 164 153 155 164 163
242 242 248 254 255 259 268 273 275 277 276 280 285 286 254 203 202 191 178 165 153 157 166 168 173 174 174 176 173 173 168 168 171 175 174 174 176 176 168 155 146 157 158 166
256 255 244 249 258 254 262 271 273 271 272 270 280 275 259 207 189 168 160 146 147 153 154 156 161 159 167 173 173 172 167 170 173 175 175 177 180 177 168 157 157 167 160 174
249 252 250 242 253 255 243 249 259 254 248 262 311 288 250 190 150 141 140 142 147 147 151 152 159 161 168 175 176 171 167 170 174 176 178 181 179 175 170 165 168 175 167 172
239 237 236 231 233 251 246 239 247 266 271 276 307 273 271 164 125 124 131 138 146 151 152 152 156 157 161 168 172 169 163 163 168 175 179 179 173 174 173 175 169 182 174 165
253 248 228 220 223 229 248 249 252 264 269 265 214 227 263 270 136 138 135 145 152 150 145 145 149 155 156 161 162 159 152 157 166 170 170 171 170 176 175 170 171 174 161 152
256 275 254 217 225 228 239 252 257 263 276 281 256 225 297 308 238 169 152 157 147 149 150 146 151 155 155 153 150 149 150 156 162 168 171 170 170 176 174 170 169 159 155 145
239 258 266 241 219 236 224 239 255 273 275 280 286 255 201 261 259 211 171 159 149 157 153 147 146 147 151 151 152 152 154 156 159 163 166 162 163 165 164 165 158 153 148 152
232 247 257 258 249 236 241 236 241 253 269 279 286 254 179 220 235 211 175 150 147 150 147 146 145 147 151 153 154 154 156 159 160 160 158 157 159 163 167 164 163 159 161 171
281 254 253 253 253 242 243 243 248 257 264 268 274 236 188 246 308 297 147 146 144 145 144 144 146 150 154 155 157 158 161 164 165 164 161 158 162 165 167 167 168 168 172 182
294 262 255 260 280 302 286 286 284 281 264 265 271 259 209 318 345 331 133 139 143 143 143 145 146 149 152 154 158 160 164 164 165 164 164 165 168 168 167 169 171 173 176 182
255 254 256 265 269 253 249 269 279 282 279 276 277 286 264 184 208 231 183 148 144 150 151 150 150 152 154 155 157 158 162 162 162 161 164 165 166 167 166 166 168 166 173 177
230 259 270 269 268 262 250 240 253 263 270 273 276 272 243 194 143 192 176 156 158 165 161 156 156 158 161 160 160 158 158 158 159 161 163 161 161 161 161 160 153 141 131 117
257 248 261 266 270 265 253 239 240 247 253 264 279 299 82 122 129 131 133 143 160 166 159 157 159 159 159 160 157 156 154 152 154 157 158 155 155 156 156 153 135 126 118 107
255 265 262 263 269 266 274 276 266 268 274 285 309 349 43 62 61 62 71 93 105 129 142 150 151 151 153 153 153 149 150 149 151 152 151 148 147 142 133 124 117 110 107 105
229 242 254 261 262 262 268 289 309 304 290 323 346 29 54 60 53 55 46 65 73 75 89 115 137 143 142 148 148 144 144 145 145 142 136 134 134 127 119 114 110 107 105 100
221 215 241 252 259 264 284 331 355 321 284 16 23 26 35 13 311 61 54 61 61 61 67 76 99 111 116 124 130 129 126 123 122 121 116 111 109 109 109 107 106 105 103 100
222 221 234 247 255 260 334 334 314 283 342 21 24 24 21 32 57 82 70 66 63 61 66 74 83 91 100 110 114 114 111 110 107 103 99 97 98 99 101 103 104 106 103 100
230 233 242 254 256 258 17 8 13 10 0 7 23 41 57 74 83 88 85 78 74 71 72 80 80 79 85 99 107 107 103 103 101 98 96 95 93 97 99 96 95 99 106 108
260 282 279 266 286 13 16 8 359 345 341 353 12 47 84 98 98 102 97 92 85 80 79 83 86 81 76 85 98 102 102 104 102 97 93 90 86 85 90 93 96 100 104 111
292 302 286 285 288 355 358 7 3 357 353 359 22 57 100 110 114 113 106 100 94 87 86 88 89 88 82 82 89 97 99 100 100 98 97 94 90 81 71 70 69 65 56 78
290 289 276 275 313 338 358 5 359 5 6 16 41 68 104 117 120 116 108 103 100 94 90 89 90 91 89 87 87 89 94 99 100 100 100 98 93 89 78 69 59 68 54 57
347 328 301 310 355 334 335 359 4 20 27 48 76 83 95 110 113 110 105 102 100 97 95 93 92 91 89 88 87 86 89 95 102 105 105 106 109 109 107 100 81 59 66 67
Height
1474 1476 1475 1466 1459 1457 1454 1455 1455 1449 1441 1444 1447 1447 1445 1448 1452 1456 1461 1465 1470 1474 1478 1480 1483 1486 1489 1491 1495 1498 1502 1506 1510 1514 1519 1523 1527 1530 1534 1537 1538 1541 1543 1545
1471 1471 1463 1457 1453 1452 1453 1458 1456 1448 1441 1443 1446 1446 1443 1446 1450 1455 1459 1463 1467 1471 1475 1479 1481 1483 1487 1489 1492 1496 1500 1503 1508 1512 1516 1521 1524 1529 1532 1535 1537 1539 1542 1544
1468 1460 1452 1453 1454 1455 1455 1457 1455 1452 1444 1441 1446 1451 1448 1448 1451 1454 1456 1460 1464 1468 1472 1476 1479 1481 1485 1487 1490 1493 1497 1501 1506 1510 1514 1518 1523 1527 1531 1533 1535 1538 1540 1543
1457 1451 1449 1450 1453 1453 1457 1448 1447 1448 1453 1454 1451 1466 1455 1449 1451 1451 1454 1457 1461 1466 1469 1474 1477 1480 1482 1484 1488 1491 1495 1499 1504 1508 1511 1515 1519 1523 1527 1531 1533 1536 1539 1541
1451 1447 1447 1449 1448 1447 1448 1442 1444 1446 1451 1456 1454 1465 1459 1448 1449 1448 1449 1453 1458 1463 1468 1471 1475 1478 1480 1483 1485 1488 1492 1497 1501 1505 1509 1513 1518 1522 1526 1529 1531 1534 1537 1540
1443 1438 1438 1441 1440 1440 1442 1444 1445 1447 1453 1472 1466 1470 1466 1445 1443 1442 1445 1451 1457 1462 1466 1470 1474 1476 1479 1482 1484 1487 1490 1494 1498 1502 1506 1510 1515 1520 1523 1526 1529 1533 1535 1538
1448 1440 1434 1436 1442 1440 1442 1455 1468 1471 1475 1480 1470 1472 1460 1436 1433 1436 1441 1449 1455 1461 1465 1469 1472 1475 1478 1480 1483 1485 1488 1492 1496 1500 1504 1508 1513 1517 1521 1524 1528 1531 1534 1536
1450 1447 1432 1431 1437 1443 1441 1448 1468 1478 1478 1479 1478 1481 1453 1430 1432 1436 1441 1448 1454 1459 1464 1468 1471 1473 1476 1478 1480 1483 1486 1490 1494 1498 1502 1507 1511 1515 1519 1523 1527 1530 1532 1535
1440 1438 1421 1422 1426 1433 1442 1442 1437 1449 1454 1470 1471 1463 1449 1435 1435 1437 1441 1447 1452 1457 1462 1466 1470 1472 1475 1477 1479 1482 1485 1489 1492 1496 1500 1505 1508 1512 1517 1521 1525 1528 1531 1533
1431 1439 1425 1421 1425 1426 1431 1433 1439 1449 1463 1469 1463 1465 1464 1448 1442 1437 1441 1446 1450 1456 1460 1464 1468 1471 1474 1476 1479 1482 1485 1488 1492 1495 1499 1503 1507 1511 1515 1519 1523 1526 1529 1532
1426 1437 1432 1425 1431 1433 1432 1437 1439 1441 1443 1458 1467 1468 1451 1448 1441 1438 1439 1443 1448 1454 1458 1463 1467 1471 1474 1476 1479 1482 1485 1488 1491 1495 1498 1503 1506 1510 1514 1518 1521 1524 1527 1530
1423 1430 1437 1429 1419 1418 1423 1429 1436 1452 1451 1445 1452 1458 1439 1440 1437 1436 1437 1440 1445 1451 1456 1461 1466 1469 1473 1476 1479 1482 1485 1488 1491 1494 1498 1502 1506 1509 1513 1516 1520 1523 1525 1528
1426 1434 1447 1444 1433 1423 1425 1426 1430 1436 1441 1446 1452 1453 1435 1436 1437 1435 1437 1440 1445 1450 1456 1460 1465 1469 1472 1475 1479 1482 1485 1488 1491 1495 1498 1502 1505 1509 1512 1515 1518 1521 1524 1527
1431 1435 1443 1448 1441 1436 1438 1434 1433 1439 1446 1445 1440 1441 1437 1437 1438 1438 1440 1442 1445 1450 1455 1460 1464 1468 1472 1475 1479 1482 1485 1488 1491 1495 1498 1501 1505 1508 1511 1514 1517 1520 1522 1525
1431 1438 1436 1432 1427 1429 1437 1441 1440 1443 1443 1443 1436 1433 1435 1436 1438 1440 1442 1443 1447 1451 1455 1459 1463 1468 1472 1475 1479 1482 1485 1488 1491 1494 1497 1500 1504 1507 1510 1513 1516 1518 1521 1524
1432 1439 1438 1437 1429 1429 1435 1437 1441 1441 1438 1434 1429 1430 1426 1430 1433 1438 1440 1443 1447 1451 1454 1458 1463 1467 1471 1474 1478 1481 1485 1488 1491 1494 1497 1500 1503 1506 1509 1512 1514 1517 1519 1522
1434 1441 1446 1445 1433 1433 1443 1435 1436 1436 1430 1428 1430 1427 1425 1432 1434 1436 1439 1442 1446 1450 1452 1456 1461 1466 1469 1473 1477 1480 1484 1487 1491 1494 1497 1500 1502 1505 1508 1511 1513 1515 1518 1520
1440 1444 1445 1445 1444 1455 1434 1421 1423 1425 1423 1422 1423 1424 1427 1432 1435 1437 1440 1443 1446 1449 1452 1455 1460 1464 1468 1472 1476 1480 1483 1487 1490 1493 1496 1499 1501 1504 1507 1510 1512 1515 1517 1519
1433 1441 1445 1447 1448 1442 1429 1424 1424 1428 1429 1424 1425 1429 1432 1435 1437 1441 1444 1444 1446 1449 1452 1455 1459 1463 1467 1471 1475 1478 1482 1486 1489 1492 1495 1498 1500 1503 1506 1509 1511 1514 1516 1518
1430 1435 1445 1447 1453 1453 1437 1426 1427 1431 1436 1433 1431 1433 1435 1437 1440 1448 1448 1447 1448 1450 1452 1455 1459 1462 1466 1470 1474 1477 1481 1484 1488 1491 1494 1497 1500 1502 1505 1508 1511 1513 1516 1518
1438 1440 1444 1446 1448 1439 1434 1429 1430 1444 1447 1441 1439 1439 1440 1443 1447 1451 1451 1451 1452 1454 1455 1457 1459 1462 1466 1470 1473 1477 1481 1484 1488 1491 1494 1497 1500 1503 1506 1509 1511 1514 1516 1518
1439 1443 1444 1444 1448 1447 1438 1436 1441 1447 1445 1443 1443 1444 1446 1448 1450 1452 1453 1455 1456 1457 1458 1460 1461 1464 1468 1471 1474 1478 1482 1485 1489 1492 1495 1498 1501 1504 1507 1510 1512 1515 1517 1519
1436 1438 1440 1443 1446 1442 1442 1443 1445 1445 1445 1445 1445 1447 1448 1450 1452 1454 1456 1457 1459 1460 1462 1463 1465 1467 1471 1473 1476 1479 1483 1487 1490 1493 1496 1500 1503 1506 1509 1512 1515 1517 1519 1521
1439 1438 1439 1441 1440 1441 1443 1444 1445 1446 1446 1446 1447 1448 1449 1451 1454 1456 1458 1460 1462 1464 1465 1467 1468 1471 1474 1477 1480 1483 1486 1489 1492 1495 1499 1503 1506 1509 1511 1514 1517 1519 1522 1524
1440 1440 1441 1442 1442 1443 1444 1446 1446 1446 1446 1446 1447 1448 1449 1451 1454 1457 1459 1462 1465 1467 1470 1471 1473 1475 1478 1481 1483 1487 1489 1492 1495 1498 1502 1505 1508 1511 1514 1516 1518 1521 1523 1525
1440 1443 1444 1446 1446 1448 1448 1448 1448 1447 1447 1447 1448 1450 1451 1452 1455 1459 1461 1465 1468 1471 1473 1475 1477 1480 1482 1485 1487 1490 1493 1496 1498 1501 1505 1509 1512 1514 1516 1518 1521 1523 1526 1527